ǯ����,��ʬ��,�Ǿ��������١�,ʿ���������١�,�����������١�,�Ǿ���®(m/s),ʿ����®(m/s),������®(m/s),����(���,���١ʡ��,����(hPa),�߱���(mm),�߱�����(�á�,�߱�����(mm/h),�ߤҤ礦��(hit/���),�ߤҤ礦����(�á�,�ߤҤ礦����(hit/���h),�ҡ�������(���,�ҡ������Ű���V),�Ÿ��Ű���V),�����Ű���V)
2006/12/01,00:00:01,255,42,168,0.3,6.2,12.3,20.5,67.9,1010.2,0.00,0,0.0,0.0,0,0.0,18.9,0.0,12.1,3.474
2006/12/01,00:10:01,257,47,205,0.1,5.2,12.7,20.5,69.1,1010.3,0.00,0,0.0,0.0,0,0.0,18.7,0.0,12.1,3.472
2006/12/01,00:20:01,245,44,198,0.1,5.1,11.9,20.5,69.5,1010.3,0.00,0,0.0,0.0,0,0.0,19.1,0.0,12.1,3.473
2006/12/01,00:30:01,230,43,220,0.1,5.0,12.3,20.4,67.6,1010.3,0.00,0,0.0,0.0,0,0.0,18.7,0.0,12.1,3.473
2006/12/01,00:40:01,244,44,161,0.1,5.4,12.5,20.6,68.3,1010.3,0.00,0,0.0,0.0,0,0.0,18.7,0.0,12.0,3.473
2006/12/01,00:50:01,226,42,220,0.3,5.5,12.3,20.6,69.3,1010.3,0.00,0,0.0,0.0,0,0.0,18.9,0.0,12.0,3.472
2006/12/01,01:00:01,237,47,201,0.2,4.8,10.5,20.4,68.7,1010.3,0.00,0,0.0,0.0,0,0.0,18.9,0.0,12.1,3.473
2006/12/01,01:10:01,238,46,175,0.2,4.8,11.8,20.5,67.1,1010.4,0.00,0,0.0,0.0,0,0.0,19.1,0.0,12.0,3.473
2006/12/01,01:20:01,262,46,219,0.2,4.4,9.9,20.5,66.1,1010.3,0.00,0,0.0,0.0,0,0.0,19.2,0.0,12.1,3.473
2006/12/01,01:30:01,233,42,201,0.1,5.0,12.1,20.7,66.5,1010.4,0.00,0,0.0,0.0,0,0.0,18.9,0.0,12.1,3.473
2006/12/01,01:40:01,242,48,189,0.1,4.3,9.5,20.6,66.6,1010.3,0.00,0,0.0,0.0,0,0.0,19.4,0.0,12.1,3.473
2006/12/01,01:50:01,232,49,202,0.1,4.2,9.7,20.5,66.4,1010.1,0.00,0,0.0,0.0,0,0.0,19.2,0.0,12.0,3.472
2006/12/01,02:00:01,237,44,163,0.1,4.3,10.2,20.5,67.9,1010.0,0.00,0,0.0,0.0,0,0.0,19.2,0.0,12.0,3.472
2006/12/01,02:10:01,237,51,190,0.1,4.2,10.8,20.5,67.8,1010.0,0.00,0,0.0,0.0,0,0.0,18.9,0.0,12.0,3.472
2006/12/01,02:20:01,251,47,191,0.0,4.8,10.6,20.6,68.5,1009.8,0.00,0,0.0,0.0,0,0.0,19.2,0.0,12.0,3.473
2006/12/01,02:30:01,228,40,154,0.1,6.1,13.3,20.6,68.7,1009.7,0.00,0,0.0,0.0,0,0.0,19.2,0.0,12.0,3.473
2006/12/01,02:40:01,238,43,216,0.1,6.0,14.3,20.5,69.1,1009.5,0.00,0,0.0,0.0,0,0.0,19.2,0.0,12.2,3.473
2006/12/01,02:50:01,231,48,195,0.4,5.4,12.0,20.3,68.2,1009.2,0.00,0,0.0,0.0,0,0.0,18.9,0.0,12.1,3.474
2006/12/01,03:00:01,293,43,155,0.4,5.8,12.3,20.3,68.5,1009.1,0.00,0,0.0,0.0,0,0.0,18.9,0.0,12.0,3.473
2006/12/01,03:10:01,235,42,174,0.3,5.8,12.6,20.3,68.2,1009.2,0.00,0,0.0,0.0,0,0.0,18.9,0.0,12.0,3.473
2006/12/01,03:20:01,257,42,191,0.1,5.6,12.6,20.3,67.8,1009.2,0.00,0,0.0,0.0,0,0.0,18.9,0.0,12.0,3.473
2006/12/01,03:30:01,231,37,174,0.5,6.9,13.7,20.5,69.2,1009.2,0.00,0,0.0,0.0,0,0.0,18.9,0.0,11.8,3.473
2006/12/01,03:40:01,220,38,166,0.5,6.4,13.2,20.4,67.3,1009.3,0.00,0,0.0,0.0,0,0.0,19.1,0.0,11.9,3.474
2006/12/01,03:50:01,243,41,173,0.2,5.4,11.0,20.2,66.0,1009.2,0.00,0,0.0,0.0,0,0.0,18.9,0.0,12.1,3.472
2006/12/01,04:00:01,242,47,224,0.2,5.2,13.0,20.1,66.8,1009.2,0.00,0,0.0,0.0,0,0.0,18.9,0.0,12.1,3.472
2006/12/01,04:10:01,285,42,131,0.2,5.7,11.6,20.1,65.4,1009.1,0.00,0,0.0,0.0,0,0.0,18.9,0.0,12.1,3.473
2006/12/01,04:20:01,237,45,164,0.1,5.7,12.0,20.0,64.7,1009.1,0.00,0,0.0,0.0,0,0.0,18.7,0.0,12.1,3.473
2006/12/01,04:30:01,242,48,227,0.2,4.8,13.0,19.9,64.6,1008.9,0.00,0,0.0,0.0,0,0.0,18.7,0.0,11.9,3.473
2006/12/01,04:40:01,256,47,214,0.1,5.4,11.3,20.0,64.6,1009.0,0.00,0,0.0,0.0,0,0.0,18.7,0.0,12.0,3.473
2006/12/01,04:50:01,233,42,168,0.3,5.4,12.0,20.1,64.8,1009.3,0.00,0,0.0,0.0,0,0.0,18.9,0.0,12.1,3.470
2006/12/01,05:00:01,248,39,181,0.1,5.6,11.7,20.0,64.1,1009.3,0.00,0,0.0,0.0,0,0.0,18.7,0.0,12.0,3.472
2006/12/01,05:10:01,299,46,199,0.2,4.8,12.4,19.9,64.3,1009.4,0.00,0,0.0,0.0,0,0.0,18.7,0.0,12.1,3.473
2006/12/01,05:20:01,251,38,198,0.1,5.4,11.5,20.1,62.5,1009.5,0.00,0,0.0,0.0,0,0.0,18.9,0.0,12.0,3.473
2006/12/01,05:30:01,224,40,189,0.2,5.6,10.6,20.0,64.0,1009.5,0.00,0,0.0,0.0,0,0.0,18.9,0.0,12.1,3.472
2006/12/01,05:40:01,242,42,201,0.2,5.1,11.2,19.9,63.9,1009.5,0.00,0,0.0,0.0,0,0.0,18.9,0.0,12.0,3.473
2006/12/01,05:50:01,244,46,219,0.1,4.7,11.1,19.8,64.2,1009.5,0.00,0,0.0,0.0,0,0.0,18.6,0.0,12.0,3.473
2006/12/01,06:00:01,244,45,154,0.1,4.8,11.3,19.8,62.1,1009.5,0.00,0,0.0,0.0,0,0.0,18.6,0.0,12.1,3.473
2006/12/01,06:10:01,244,47,217,0.2,4.8,10.2,19.7,62.4,1009.7,0.00,0,0.0,0.0,0,0.0,18.4,0.0,12.1,3.473
2006/12/01,06:20:01,250,48,215,0.1,4.2,10.7,19.6,61.5,1010.0,0.00,0,0.0,0.0,0,0.0,18.4,0.0,12.0,3.474
2006/12/01,06:30:01,235,48,182,0.1,4.1,8.7,19.7,61.6,1010.1,0.00,0,0.0,0.0,0,0.0,18.4,0.0,12.1,3.473
2006/12/01,06:40:01,257,47,221,0.1,4.3,10.0,19.7,62.7,1010.2,0.00,0,0.0,0.0,0,0.0,18.4,0.0,12.0,3.473
2006/12/01,06:50:01,253,51,224,0.3,4.2,9.0,19.9,60.5,1010.7,0.00,0,0.0,0.0,0,0.0,18.7,0.0,12.1,3.473
2006/12/01,07:00:01,238,49,227,0.0,3.9,11.1,20.0,61.7,1010.7,0.00,0,0.0,0.0,0,0.0,19.1,0.0,12.1,3.474
2006/12/01,07:10:01,260,50,229,0.2,4.2,10.8,20.0,61.1,1010.7,0.00,0,0.0,0.0,0,0.0,18.9,0.0,12.1,3.474
2006/12/01,07:20:01,243,46,208,0.1,4.3,9.3,20.0,60.7,1010.8,0.00,0,0.0,0.0,0,0.0,19.1,0.0,12.1,3.472
2006/12/01,07:30:01,241,51,228,0.3,3.8,9.0,19.8,61.5,1010.7,0.00,0,0.0,0.0,0,0.0,18.9,0.0,12.1,3.473
2006/12/01,07:40:01,237,53,224,0.1,3.7,10.0,19.7,61.4,1010.9,0.00,0,0.0,0.0,0,0.0,18.9,0.0,12.1,3.474
2006/12/01,07:50:01,235,50,230,0.1,3.9,8.9,19.9,61.7,1011.0,0.00,0,0.0,0.0,0,0.0,18.9,0.0,12.0,3.472
2006/12/01,08:00:01,235,51,228,0.0,3.9,9.7,19.9,63.4,1010.9,0.00,0,0.0,0.0,0,0.0,19.1,0.0,12.1,3.473
2006/12/01,08:10:01,227,44,194,0.0,4.1,9.9,19.9,64.2,1011.0,0.00,0,0.0,0.0,0,0.0,19.1,0.0,12.1,3.473
2006/12/01,08:20:01,244,48,208,0.1,4.3,10.2,20.1,63.2,1011.1,0.00,0,0.0,0.0,0,0.0,18.7,0.0,12.1,3.473
2006/12/01,08:30:01,251,46,196,0.1,4.2,9.7,20.0,63.8,1011.2,0.00,0,0.0,0.0,0,0.0,19.4,0.0,12.1,3.473
2006/12/01,08:40:01,231,51,208,0.1,3.6,9.6,20.1,62.3,1011.2,0.00,0,0.0,0.0,0,0.0,19.4,0.0,12.1,3.473
2006/12/01,08:50:01,237,54,216,0.2,3.5,9.2,20.1,62.3,1011.0,0.00,0,0.0,0.0,0,0.0,19.6,0.0,12.1,3.473
2006/12/01,09:00:01,244,60,226,0.1,3.7,8.7,20.5,61.0,1010.9,0.00,0,0.0,0.0,0,0.0,20.2,0.0,12.0,3.472
2006/12/01,09:10:01,269,58,220,0.0,3.9,8.8,20.4,61.9,1011.0,0.00,0,0.0,0.0,0,0.0,20.2,0.0,12.0,3.470
2006/12/01,09:20:01,260,66,238,0.1,3.8,9.5,20.4,60.7,1011.1,0.00,0,0.0,0.0,0,0.0,20.2,0.0,12.1,3.472
2006/12/01,09:30:01,252,60,190,0.2,3.8,7.9,20.7,61.3,1011.1,0.00,0,0.0,0.0,0,0.0,20.9,0.0,12.0,3.473
2006/12/01,09:40:01,243,50,161,0.2,4.3,9.0,20.8,60.4,1011.2,0.00,0,0.0,0.0,0,0.0,21.2,0.0,12.0,3.472
2006/12/01,09:50:01,256,56,208,0.2,3.7,8.0,20.9,60.0,1011.1,0.00,0,0.0,0.0,0,0.0,21.2,0.0,12.0,3.472
2006/12/01,10:00:01,253,71,239,0.0,3.6,8.7,21.0,60.0,1010.9,0.00,0,0.0,0.0,0,0.0,21.4,0.0,12.0,3.470
2006/12/01,10:10:01,248,59,241,0.0,3.8,9.2,21.4,61.4,1011.0,0.00,0,0.0,0.0,0,0.0,22.4,0.0,12.1,3.472
2006/12/01,10:20:01,248,66,243,0.2,3.7,8.4,21.2,62.9,1011.0,0.00,0,0.0,0.0,0,0.0,22.2,0.0,12.0,3.472
2006/12/01,10:30:01,238,53,172,0.0,4.1,10.1,21.2,63.7,1011.0,0.00,0,0.0,0.0,0,0.0,21.7,0.0,12.0,3.472
2006/12/01,10:40:01,240,49,227,0.1,4.1,10.0,21.0,65.0,1010.9,0.00,0,0.0,0.0,0,0.0,21.1,0.0,11.9,3.473
2006/12/01,10:50:01,236,50,232,0.1,4.1,9.1,20.9,66.1,1010.7,0.00,0,0.0,0.0,0,0.0,20.9,0.0,12.0,3.472
2006/12/01,11:00:01,252,45,141,0.3,4.6,10.1,21.1,65.8,1010.5,0.00,0,0.0,0.0,0,0.0,21.1,0.0,12.0,3.472
2006/12/01,11:10:01,236,49,227,0.1,4.2,9.8,21.7,64.0,1010.3,0.00,0,0.0,0.0,0,0.0,22.6,0.0,12.1,3.470
2006/12/01,11:20:01,234,46,212,0.1,4.4,10.2,21.6,64.8,1010.4,0.00,0,0.0,0.0,0,0.0,23.1,0.0,12.1,3.472
2006/12/01,11:30:01,242,58,163,0.1,4.1,9.1,20.8,65.9,1010.2,0.00,0,0.0,0.0,0,0.0,21.6,0.0,12.0,3.473
2006/12/01,11:40:01,228,48,224,0.2,4.0,9.9,20.8,65.7,1010.1,0.00,0,0.0,0.0,0,0.0,21.1,0.0,12.0,3.472
2006/12/01,11:50:01,235,49,211,0.1,3.7,9.3,20.8,65.8,1010.0,0.00,0,0.0,0.0,0,0.0,20.9,0.0,12.0,3.469
2006/12/01,12:00:01,232,48,216,0.2,4.0,8.3,20.6,65.8,1009.8,0.00,0,0.0,0.0,0,0.0,20.4,0.0,12.0,3.473
2006/12/01,12:10:01,246,46,167,0.1,4.1,8.2,20.6,65.0,1009.7,0.00,0,0.0,0.0,0,0.0,20.2,0.0,12.0,3.473
2006/12/01,12:20:01,257,56,230,0.0,3.4,7.7,20.6,66.4,1009.6,0.00,0,0.0,0.0,0,0.0,20.2,0.0,12.0,3.473
2006/12/01,12:30:01,275,53,225,0.1,3.8,9.4,20.6,64.7,1009.4,0.00,0,0.0,0.0,0,0.0,19.9,0.0,12.0,3.473
2006/12/01,12:40:01,252,58,208,0.1,3.7,8.1,20.6,64.8,1009.1,0.00,0,0.0,0.0,0,0.0,20.2,0.0,12.1,3.472
2006/12/01,12:50:01,235,51,226,0.1,3.3,7.9,21.0,64.4,1008.9,0.00,0,0.0,0.0,0,0.0,21.1,0.0,12.1,3.472
2006/12/01,13:00:01,241,56,234,0.1,3.7,8.6,20.8,63.4,1008.8,0.00,0,0.0,0.0,0,0.0,20.7,0.0,12.0,3.472
2006/12/01,13:10:01,248,51,207,0.2,4.3,9.2,20.6,63.8,1008.5,0.00,0,0.0,0.0,0,0.0,20.6,0.0,12.0,3.473
2006/12/01,13:20:01,237,50,226,0.1,4.0,8.5,20.9,64.4,1008.5,0.00,0,0.0,0.0,0,0.0,20.7,0.0,12.1,3.472
2006/12/01,13:30:01,244,56,224,0.1,3.7,8.8,20.6,64.8,1008.5,0.00,0,0.0,0.0,0,0.0,20.6,0.0,12.0,3.472
2006/12/01,13:40:01,260,46,209,0.2,4.2,8.5,20.4,64.4,1008.3,0.00,0,0.0,0.0,0,0.0,20.1,0.0,12.0,3.472
2006/12/01,13:50:01,245,46,228,0.1,3.8,8.1,20.4,65.6,1008.3,0.00,0,0.0,0.0,0,0.0,19.9,0.0,12.0,3.472
2006/12/01,14:00:01,226,43,198,0.0,3.8,9.0,20.3,66.5,1008.3,0.00,0,0.0,0.0,0,0.0,19.7,0.0,12.1,3.472
2006/12/01,14:10:01,229,44,215,0.2,4.0,8.1,20.3,66.4,1008.1,0.00,0,0.0,0.0,0,0.0,19.6,0.0,12.0,3.473
2006/12/01,14:20:01,231,51,215,0.1,3.9,8.9,20.2,66.9,1008.0,0.00,0,0.0,0.0,0,0.0,19.4,0.0,12.0,3.473
2006/12/01,14:30:01,240,45,225,0.2,4.1,9.3,20.4,67.2,1007.8,0.00,0,0.0,0.0,0,0.0,19.7,0.0,12.0,3.470
2006/12/01,14:40:01,267,46,224,0.3,3.9,9.1,20.4,66.6,1007.7,0.00,0,0.0,0.0,0,0.0,19.9,0.0,12.0,3.473
2006/12/01,14:50:01,252,45,222,0.1,4.3,11.1,20.4,66.1,1007.8,0.00,0,0.0,0.0,0,0.0,20.1,0.0,12.1,3.472
2006/12/01,15:00:01,244,42,217,0.2,4.3,9.3,20.3,66.8,1007.8,0.00,0,0.0,0.0,0,0.0,20.1,0.0,12.0,3.474
2006/12/01,15:10:01,254,44,223,0.0,4.1,10.7,20.4,67.0,1007.6,0.00,0,0.0,0.0,0,0.0,20.1,0.0,12.0,3.473
2006/12/01,15:20:01,242,42,182,0.2,4.7,10.5,20.3,66.8,1007.6,0.00,0,0.0,0.0,0,0.0,20.1,0.0,12.0,3.472
2006/12/01,15:30:01,305,42,191,0.1,5.0,9.7,20.3,67.3,1007.7,0.00,0,0.0,0.0,0,0.0,20.1,0.0,12.0,3.472
2006/12/01,15:40:01,246,44,197,0.1,4.4,9.5,20.5,68.2,1007.6,0.00,0,0.0,0.0,0,0.0,20.7,0.0,12.0,3.472
2006/12/01,15:50:01,259,45,217,0.1,4.4,10.3,20.4,67.4,1007.6,0.00,0,0.0,0.0,0,0.0,20.2,0.0,12.0,3.473
2006/12/01,16:00:01,232,46,210,0.1,4.2,9.2,20.2,67.1,1007.7,0.00,0,0.0,0.0,0,0.0,20.4,0.0,12.0,3.473
2006/12/01,16:10:01,245,41,210,0.2,4.2,8.6,20.2,67.0,1007.9,0.00,0,0.0,0.0,0,0.0,20.2,0.0,12.0,3.473
2006/12/01,16:20:01,228,43,220,0.1,4.1,10.4,20.2,66.8,1008.1,0.00,0,0.0,0.0,0,0.0,20.2,0.0,12.0,3.473
2006/12/01,16:30:01,258,41,174,0.1,4.1,9.3,20.2,66.8,1008.1,0.00,0,0.0,0.0,0,0.0,19.7,0.0,12.0,3.473
2006/12/01,16:40:01,238,38,158,0.1,4.6,10.3,20.1,67.3,1008.2,0.00,0,0.0,0.0,0,0.0,19.7,0.0,12.1,3.473
2006/12/01,16:50:01,251,39,217,0.1,4.4,9.0,20.0,67.5,1008.4,0.00,0,0.0,0.0,0,0.0,19.4,0.0,12.1,3.473
2006/12/01,17:00:01,247,39,217,0.0,4.7,9.5,19.9,66.9,1008.5,0.00,0,0.0,0.0,0,0.0,19.4,0.0,12.1,3.473
2006/12/01,17:10:01,257,39,167,0.0,4.8,9.7,20.1,67.7,1008.6,0.00,0,0.0,0.0,0,0.0,19.1,0.0,12.1,3.472
2006/12/01,17:20:01,235,37,162,0.2,5.0,9.4,20.0,66.6,1008.8,0.00,0,0.0,0.0,0,0.0,19.2,0.0,12.1,3.473
2006/12/01,17:30:01,236,37,208,0.3,4.6,9.9,20.1,66.7,1009.1,0.00,0,0.0,0.0,0,0.0,19.2,0.0,12.1,3.473
2006/12/01,17:40:01,241,35,139,0.1,5.5,10.4,20.2,67.2,1009.2,0.00,0,0.0,0.0,0,0.0,19.2,0.0,12.0,3.472
2006/12/01,17:50:01,246,31,133,0.2,5.6,10.6,20.2,66.3,1009.4,0.00,0,0.0,0.0,0,0.0,19.4,0.0,12.1,3.472
2006/12/01,18:00:01,259,28,127,0.4,6.1,12.4,20.2,66.7,1009.7,0.00,0,0.0,0.0,0,0.0,19.4,0.0,12.1,3.473
2006/12/01,18:10:01,242,30,206,0.1,5.4,10.7,20.2,65.4,1009.8,0.00,0,0.0,0.0,0,0.0,19.4,0.0,12.1,3.473
2006/12/01,18:20:01,238,34,178,0.4,5.6,10.7,20.2,65.1,1009.9,0.00,0,0.0,0.0,0,0.0,19.4,0.0,12.1,3.473
2006/12/01,18:30:01,233,32,204,0.5,5.6,10.7,20.3,66.2,1010.1,0.00,0,0.0,0.0,0,0.0,19.6,0.0,12.1,3.472
2006/12/01,18:40:01,257,37,173,0.6,5.2,11.8,20.0,67.0,1010.2,0.00,90,0.0,0.0,0,0.0,18.9,0.0,12.1,3.473
2006/12/01,18:50:01,246,34,160,0.4,6.0,12.3,20.1,66.0,1010.4,0.00,0,0.0,0.0,0,0.0,18.7,0.0,12.1,3.474
2006/12/01,19:00:01,224,35,110,0.3,6.0,12.0,20.1,67.0,1010.4,0.00,0,0.0,0.0,0,0.0,19.1,0.0,12.0,3.474
2006/12/01,19:10:01,245,34,172,0.3,6.0,12.0,20.2,67.9,1010.6,0.00,0,0.0,0.0,0,0.0,19.4,0.0,12.2,3.473
2006/12/01,19:20:01,257,38,213,0.1,5.4,11.5,20.2,65.5,1010.7,0.00,0,0.0,0.0,0,0.0,19.2,0.0,12.0,3.473
2006/12/01,19:30:01,232,37,195,0.1,5.9,11.4,20.2,64.5,1010.7,0.00,0,0.0,0.0,0,0.0,19.4,0.0,12.1,3.473
2006/12/01,19:40:01,301,35,103,0.6,6.0,12.0,20.2,64.6,1010.7,0.00,0,0.0,0.0,0,0.0,19.4,0.0,12.1,3.473
2006/12/01,19:50:01,239,35,198,0.3,5.9,11.9,20.2,64.4,1010.7,0.00,0,0.0,0.0,0,0.0,19.4,0.0,12.1,3.473
2006/12/01,20:00:01,244,35,95,0.1,6.4,12.5,20.2,63.9,1010.7,0.00,0,0.0,0.0,0,0.0,19.2,0.0,12.1,3.472
2006/12/01,20:10:01,277,38,177,0.3,5.6,11.6,20.1,63.3,1010.6,0.00,0,0.0,0.0,0,0.0,19.2,0.0,12.1,3.473
2006/12/01,20:20:01,255,39,159,0.1,5.9,12.6,20.0,63.2,1010.6,0.00,0,0.0,0.0,0,0.0,19.2,0.0,12.1,3.473
2006/12/01,20:30:01,262,37,192,0.2,6.1,11.7,20.1,64.3,1010.4,0.00,0,0.0,0.0,0,0.0,19.1,0.0,12.1,3.473
2006/12/01,20:40:01,224,39,207,0.2,6.4,12.9,20.1,64.5,1010.4,0.00,0,0.0,0.0,0,0.0,19.4,0.0,12.1,3.473
2006/12/01,20:50:01,245,43,221,0.1,5.7,13.4,20.0,62.1,1010.5,0.00,0,0.0,0.0,0,0.0,19.1,0.0,12.1,3.472
2006/12/01,21:00:01,239,46,188,0.1,5.2,11.9,20.0,62.7,1010.4,0.00,0,0.0,0.0,0,0.0,18.9,0.0,12.0,3.472
2006/12/01,21:10:01,284,47,218,0.2,4.8,11.5,19.9,61.2,1010.7,0.00,0,0.0,0.0,0,0.0,18.9,0.0,12.1,3.474
2006/12/01,21:20:01,310,39,166,0.4,5.7,11.6,20.1,62.0,1010.8,0.00,0,0.0,0.0,0,0.0,19.1,0.0,12.1,3.472
2006/12/01,21:30:01,246,44,167,0.1,4.8,10.1,20.0,62.7,1010.9,0.00,0,0.0,0.0,0,0.0,18.9,0.0,12.1,3.472
2006/12/01,21:40:01,262,47,187,0.1,4.8,10.0,19.9,62.2,1011.0,0.00,0,0.0,0.0,0,0.0,18.9,0.0,12.1,3.473
2006/12/01,21:50:01,255,42,188,0.3,4.3,10.4,20.0,62.8,1011.1,0.00,0,0.0,0.0,0,0.0,18.9,0.0,12.1,3.473
2006/12/01,22:00:01,238,42,218,0.0,5.0,11.8,20.0,62.1,1011.1,0.00,0,0.0,0.0,0,0.0,18.9,0.0,12.1,3.472
2006/12/01,22:10:01,252,42,186,0.2,5.4,11.6,20.1,63.0,1011.1,0.00,0,0.0,0.0,0,0.0,18.9,0.0,12.0,3.473
2006/12/01,22:20:01,256,33,158,0.4,6.5,14.4,20.1,62.1,1011.1,0.00,0,0.0,0.0,0,0.0,18.7,0.0,12.1,3.472
2006/12/01,22:30:01,286,40,175,0.3,5.2,10.3,19.9,61.0,1011.2,0.00,0,0.0,0.0,0,0.0,18.7,0.0,12.1,3.472
2006/12/01,22:40:01,220,34,168,0.1,6.1,12.7,20.1,60.4,1011.2,0.00,0,0.0,0.0,0,0.0,18.7,0.0,12.1,3.473
2006/12/01,22:50:01,266,36,210,0.3,6.0,12.6,19.8,60.8,1011.2,0.00,0,0.0,0.0,0,0.0,18.7,0.0,12.1,3.473
2006/12/01,23:00:01,292,49,146,0.2,4.3,10.4,19.6,61.6,1011.2,0.00,0,0.0,0.0,0,0.0,18.6,0.0,12.1,3.474
2006/12/01,23:10:01,231,47,217,0.1,4.4,9.6,19.6,62.4,1011.1,0.00,0,0.0,0.0,0,0.0,18.4,0.0,12.0,3.472
2006/12/01,23:20:01,258,44,201,0.2,4.7,10.7,19.7,60.9,1010.9,0.00,0,0.0,0.0,0,0.0,18.2,0.0,12.0,3.473
2006/12/01,23:30:01,251,47,223,0.1,4.5,10.4,19.6,60.8,1010.9,0.00,0,0.0,0.0,0,0.0,18.4,0.0,12.0,3.473
2006/12/01,23:40:01,228,48,217,0.2,4.9,10.9,19.6,61.3,1010.8,0.00,0,0.0,0.0,0,0.0,18.4,0.0,12.1,3.473
2006/12/01,23:50:01,226,43,192,0.2,5.2,11.3,19.7,62.7,1010.9,0.00,0,0.0,0.0,0,0.0,18.2,0.0,12.1,3.473
2006/12/02,00:00:01,227,46,206,0.1,4.3,11.0,19.6,63.2,1010.8,0.00,0,0.0,0.0,0,0.0,18.2,0.0,12.1,3.476
2006/12/02,00:10:01,259,47,224,0.0,4.4,11.0,19.5,61.0,1010.8,0.00,0,0.0,0.0,0,0.0,18.0,0.0,12.0,3.473
2006/12/02,00:20:01,253,45,224,0.1,4.4,10.5,19.6,61.0,1010.8,0.00,0,0.0,0.0,0,0.0,18.4,0.0,12.0,3.473
2006/12/02,00:30:01,256,52,228,0.0,4.4,9.7,19.6,60.8,1010.9,0.00,0,0.0,0.0,0,0.0,18.2,0.0,12.1,3.473
2006/12/02,00:40:01,258,53,222,0.1,4.0,10.6,19.6,60.8,1011.0,0.00,0,0.0,0.0,0,0.0,18.4,0.0,12.1,3.473
2006/12/02,00:50:01,242,51,185,0.2,4.4,8.7,19.6,59.6,1011.0,0.00,0,0.0,0.0,0,0.0,18.6,0.0,12.1,3.473
2006/12/02,01:00:01,248,52,208,0.1,4.0,9.7,19.5,60.7,1011.2,0.00,0,0.0,0.0,0,0.0,18.4,0.0,12.0,3.473
2006/12/02,01:10:01,232,47,192,0.1,3.9,9.8,19.6,62.0,1011.2,0.00,0,0.0,0.0,0,0.0,18.4,0.0,12.1,3.473
2006/12/02,01:20:01,247,53,167,0.0,3.9,9.1,19.5,61.5,1011.1,0.00,0,0.0,0.0,0,0.0,18.0,0.0,12.1,3.473
2006/12/02,01:30:01,245,52,220,0.0,3.7,9.4,19.4,61.5,1010.9,0.00,0,0.0,0.0,0,0.0,18.2,0.0,12.0,3.473
2006/12/02,01:40:01,303,54,205,0.2,4.3,9.4,19.4,61.7,1010.8,0.00,0,0.0,0.0,0,0.0,18.0,0.0,12.0,3.474
2006/12/02,01:50:01,244,49,227,0.1,4.4,9.5,19.5,61.1,1010.7,0.00,0,0.0,0.0,0,0.0,18.0,0.0,12.1,3.473
2006/12/02,02:00:01,229,44,158,0.2,4.7,11.2,19.6,61.1,1010.4,0.00,0,0.0,0.0,0,0.0,18.2,0.0,12.0,3.472
2006/12/02,02:10:01,237,47,208,0.1,4.7,10.3,19.5,60.8,1010.5,0.00,0,0.0,0.0,0,0.0,18.2,0.0,12.1,3.473
2006/12/02,02:20:01,233,51,231,0.1,4.2,10.0,19.5,59.8,1010.7,0.00,0,0.0,0.0,0,0.0,18.2,0.0,12.0,3.472
2006/12/02,02:30:01,255,49,184,0.1,4.4,9.8,19.6,59.8,1010.5,0.00,0,0.0,0.0,0,0.0,18.2,0.0,12.1,3.473
2006/12/02,02:40:01,249,49,179,0.1,4.2,11.1,19.5,59.1,1010.5,0.00,0,0.0,0.0,0,0.0,18.0,0.0,12.0,3.473
2006/12/02,02:50:01,236,50,214,0.1,4.4,9.8,19.5,60.1,1010.3,0.00,0,0.0,0.0,0,0.0,18.0,0.0,12.1,3.470
2006/12/02,03:00:01,235,45,224,0.2,5.1,11.2,19.7,60.9,1010.1,0.00,0,0.0,0.0,0,0.0,18.6,0.0,12.0,3.474
2006/12/02,03:10:01,262,39,134,0.1,5.6,11.4,19.7,58.9,1010.3,0.00,0,0.0,0.0,0,0.0,18.4,0.0,12.1,3.472
2006/12/02,03:20:01,260,44,189,0.1,5.2,11.3,19.5,60.4,1010.1,0.00,0,0.0,0.0,0,0.0,18.2,0.0,12.1,3.473
2006/12/02,03:30:01,225,43,222,0.3,5.4,11.8,19.8,58.3,1010.1,0.00,0,0.0,0.0,0,0.0,18.2,0.0,12.0,3.472
2006/12/02,03:40:01,247,39,190,0.4,5.9,11.9,19.6,59.8,1010.2,0.00,0,0.0,0.0,0,0.0,18.9,0.0,12.0,3.473
2006/12/02,03:50:01,230,36,163,0.3,6.3,12.9,19.8,57.1,1010.2,0.00,0,0.0,0.0,0,0.0,19.1,0.0,12.0,3.474
2006/12/02,04:00:01,230,39,217,0.1,6.0,12.8,19.9,59.3,1010.1,0.00,0,0.0,0.0,0,0.0,18.2,0.0,12.0,3.473
2006/12/02,04:10:01,227,40,178,0.5,6.2,13.0,19.9,57.5,1010.3,0.00,0,0.0,0.0,0,0.0,18.9,0.0,12.1,3.473
2006/12/02,04:20:01,234,36,160,0.5,6.8,14.8,20.0,57.1,1010.4,0.00,0,0.0,0.0,0,0.0,18.7,0.0,12.1,3.473
2006/12/02,04:30:01,229,32,160,0.5,6.7,12.6,20.1,56.9,1010.5,0.00,0,0.0,0.0,0,0.0,18.7,0.0,12.1,3.473
2006/12/02,04:40:01,252,28,158,0.4,6.6,13.8,20.1,55.6,1010.5,0.00,0,0.0,0.0,0,0.0,18.7,0.0,12.1,3.472
2006/12/02,04:50:01,228,30,115,0.3,6.3,12.0,20.1,55.7,1010.5,0.00,0,0.0,0.0,0,0.0,18.9,0.0,12.1,3.473
2006/12/02,05:00:01,227,28,125,0.1,5.9,11.7,20.1,55.9,1010.7,0.00,0,0.0,0.0,0,0.0,18.9,0.0,12.1,3.473
2006/12/02,05:10:01,223,32,188,0.3,5.7,13.1,20.0,58.6,1010.6,0.00,0,0.0,0.0,0,0.0,18.7,0.0,12.1,3.472
2006/12/02,05:20:01,219,39,173,0.1,5.1,11.1,20.0,56.9,1010.7,0.00,0,0.0,0.0,0,0.0,18.7,0.0,12.1,3.473
2006/12/02,05:30:01,247,33,205,0.2,5.7,12.1,20.1,58.3,1010.7,0.00,0,0.0,0.0,0,0.0,18.7,0.0,12.1,3.472
2006/12/02,05:40:01,242,31,87,0.8,6.0,11.3,20.0,57.3,1010.7,0.00,0,0.0,0.0,0,0.0,18.7,0.0,12.1,3.473
2006/12/02,05:50:01,314,31,106,0.1,6.1,12.0,20.1,56.7,1010.9,0.00,0,0.0,0.0,0,0.0,18.7,0.0,11.9,3.472
2006/12/02,06:00:01,237,32,201,0.1,6.0,13.5,20.1,55.6,1010.9,0.00,0,0.0,0.0,0,0.0,18.7,0.0,12.1,3.472
2006/12/02,06:10:01,248,26,118,0.1,5.8,11.7,20.1,55.6,1011.1,0.00,0,0.0,0.0,0,0.0,18.6,0.0,12.1,3.473
2006/12/02,06:20:01,284,31,177,0.2,5.9,11.0,20.0,56.8,1011.2,0.00,0,0.0,0.0,0,0.0,18.6,0.0,12.1,3.474
2006/12/02,06:30:01,250,35,96,0.3,6.2,13.2,20.1,57.8,1011.4,0.00,0,0.0,0.0,0,0.0,18.4,0.0,12.1,3.473
2006/12/02,06:40:01,244,32,160,0.6,6.6,12.2,20.2,57.0,1011.5,0.00,0,0.0,0.0,0,0.0,18.7,0.0,12.0,3.473
2006/12/02,06:50:01,237,30,145,0.3,6.6,12.7,20.2,57.2,1011.6,0.00,0,0.0,0.0,0,0.0,18.9,0.0,12.1,3.473
2006/12/02,07:00:01,259,29,80,0.6,6.8,12.4,20.2,56.2,1011.5,0.00,0,0.0,0.0,0,0.0,18.9,0.0,12.0,3.473
2006/12/02,07:10:01,222,35,166,0.3,6.7,13.8,20.3,58.7,1011.6,0.00,0,0.0,0.0,0,0.0,19.1,0.0,12.1,3.472
2006/12/02,07:20:01,231,34,146,0.2,6.7,14.2,20.3,59.1,1011.6,0.00,0,0.0,0.0,0,0.0,19.1,0.0,12.1,3.473
2006/12/02,07:30:01,247,34,165,0.2,6.8,15.5,20.5,57.2,1011.8,0.00,0,0.0,0.0,0,0.0,19.1,0.0,12.1,3.472
2006/12/02,07:40:01,219,35,182,0.4,7.2,13.8,20.4,55.5,1012.0,0.00,0,0.0,0.0,0,0.0,19.2,0.0,12.1,3.472
2006/12/02,07:50:01,260,28,108,0.6,7.1,13.6,20.4,58.1,1012.0,0.00,0,0.0,0.0,0,0.0,19.1,0.0,12.1,3.473
2006/12/02,08:00:01,255,32,174,0.3,6.9,13.3,20.5,57.0,1012.1,0.00,0,0.0,0.0,0,0.0,19.4,0.0,12.1,3.473
2006/12/02,08:10:01,210,29,162,0.2,7.6,13.6,20.6,57.3,1012.2,0.00,0,0.0,0.0,0,0.0,19.2,0.0,12.1,3.472
2006/12/02,08:20:01,211,30,188,0.1,7.2,14.8,20.5,56.8,1012.2,0.00,0,0.0,0.0,0,0.0,19.4,0.0,12.1,3.473
2006/12/02,08:30:01,218,29,187,0.2,7.3,13.5,20.5,56.6,1012.5,0.00,0,0.0,0.0,0,0.0,19.4,0.0,12.0,3.473
2006/12/02,08:40:01,287,30,124,0.0,7.1,13.6,20.6,57.9,1012.8,0.00,0,0.0,0.0,0,0.0,19.4,0.0,12.1,3.473
2006/12/02,08:50:01,241,29,122,0.2,6.8,14.0,20.6,58.5,1013.1,0.00,0,0.0,0.0,0,0.0,19.4,0.0,12.1,3.472
2006/12/02,09:00:01,252,26,157,0.5,7.0,13.7,20.5,56.4,1013.1,0.00,0,0.0,0.0,0,0.0,19.2,0.0,12.1,3.473
2006/12/02,09:10:01,222,29,111,0.2,7.0,12.6,20.4,57.1,1013.3,0.00,0,0.0,0.0,0,0.0,19.2,0.0,12.1,3.472
2006/12/02,09:20:01,208,24,193,0.5,6.9,14.3,20.4,54.9,1013.2,0.00,0,0.0,0.0,0,0.0,19.4,0.0,12.1,3.473
2006/12/02,09:30:01,236,27,198,0.9,7.4,13.7,20.6,56.4,1012.9,0.00,0,0.0,0.0,0,0.0,19.6,0.0,12.1,3.474
2006/12/02,09:40:01,325,31,167,0.3,7.4,14.9,20.6,55.2,1013.2,0.00,0,0.0,0.0,0,0.0,19.6,0.0,12.0,3.473
2006/12/02,09:50:01,265,29,129,0.3,7.6,14.9,20.5,55.3,1013.5,0.00,0,0.0,0.0,0,0.0,19.4,0.0,12.1,3.473
2006/12/02,10:00:01,220,27,152,0.2,7.0,13.4,20.5,55.8,1013.5,0.00,0,0.0,0.0,0,0.0,19.4,0.0,12.1,3.472
2006/12/02,10:10:01,225,24,186,0.3,7.3,13.9,20.6,56.0,1013.3,0.00,0,0.0,0.0,0,0.0,19.4,0.0,12.1,3.472
2006/12/02,10:20:01,205,24,155,0.6,6.9,13.4,20.7,55.0,1013.4,0.00,0,0.0,0.0,0,0.0,19.7,0.0,12.1,3.473
2006/12/02,10:30:01,237,27,147,0.5,7.5,14.4,20.8,55.8,1013.5,0.00,0,0.0,0.0,0,0.0,20.2,0.0,12.1,3.472
2006/12/02,10:40:01,243,24,120,0.3,6.9,13.3,20.7,55.0,1013.6,0.00,0,0.0,0.0,0,0.0,20.2,0.0,12.1,3.472
2006/12/02,10:50:01,253,30,178,0.2,6.6,12.8,21.3,56.6,1013.6,0.00,0,0.0,0.0,0,0.0,21.2,0.0,12.0,3.472
2006/12/02,11:00:01,237,24,202,0.1,6.2,13.3,21.0,56.4,1013.5,0.00,0,0.0,0.0,0,0.0,21.1,0.0,12.0,3.472
2006/12/02,11:10:01,225,23,151,0.4,6.5,12.2,21.0,53.5,1013.6,0.00,0,0.0,0.0,0,0.0,20.6,0.0,12.0,3.473
2006/12/02,11:20:01,210,27,159,0.2,5.7,10.8,21.5,53.9,1013.4,0.00,0,0.0,0.0,0,0.0,21.7,0.0,12.0,3.470
2006/12/02,11:30:01,232,28,157,0.2,6.0,12.5,21.7,54.3,1013.2,0.00,0,0.0,0.0,0,0.0,22.6,0.0,12.1,3.473
2006/12/02,11:40:01,235,27,206,0.4,6.1,11.3,21.6,53.4,1013.3,0.00,0,0.0,0.0,0,0.0,22.4,0.0,12.1,3.472
2006/12/02,11:50:01,219,28,194,0.2,6.0,12.7,21.4,50.4,1012.9,0.00,0,0.0,0.0,0,0.0,21.7,0.0,12.0,3.472
2006/12/02,12:00:01,262,26,206,0.2,6.0,12.2,21.5,50.0,1012.7,0.00,0,0.0,0.0,0,0.0,21.6,0.0,12.0,3.472
2006/12/02,12:10:01,250,26,130,0.3,5.9,11.9,21.3,47.4,1012.5,0.00,0,0.0,0.0,0,0.0,21.7,0.0,12.0,3.472
2006/12/02,12:20:01,237,24,136,0.3,5.5,11.5,21.3,48.9,1012.3,0.00,0,0.0,0.0,0,0.0,21.2,0.0,12.0,3.472
2006/12/02,12:30:01,217,23,169,0.1,5.1,11.8,21.3,50.6,1012.2,0.00,0,0.0,0.0,0,0.0,21.1,0.0,12.0,3.472
2006/12/02,12:40:01,256,23,175,0.2,5.0,9.6,21.3,47.5,1011.8,0.00,0,0.0,0.0,0,0.0,21.4,0.0,12.0,3.473
2006/12/02,12:50:01,255,22,195,0.1,4.9,11.5,21.3,49.2,1011.6,0.00,0,0.0,0.0,0,0.0,21.4,0.0,12.0,3.472
2006/12/02,13:00:01,227,24,202,0.1,5.6,10.7,21.4,52.1,1011.7,0.00,0,0.0,0.0,0,0.0,21.4,0.0,12.0,3.473
2006/12/02,13:10:01,219,22,198,0.2,5.4,10.6,21.0,51.9,1011.6,0.00,0,0.0,0.0,0,0.0,21.2,0.0,12.0,3.473
2006/12/02,13:20:01,243,21,150,0.4,5.4,10.8,20.7,55.0,1011.7,0.00,0,0.0,0.0,0,0.0,19.9,0.0,12.0,3.472
2006/12/02,13:30:01,238,19,133,0.1,5.5,10.9,20.8,55.6,1011.5,0.00,0,0.0,0.0,0,0.0,19.9,0.0,12.0,3.474
2006/12/02,13:40:01,246,25,148,0.0,5.3,11.1,20.7,58.1,1011.4,0.00,0,0.0,0.0,0,0.0,20.2,0.0,12.1,3.472
2006/12/02,13:50:01,223,24,164,0.3,6.2,11.6,20.8,59.4,1011.2,0.00,0,0.0,0.0,0,0.0,20.1,0.0,12.0,3.472
2006/12/02,14:00:01,227,26,196,0.3,5.9,11.8,21.1,60.0,1011.2,0.00,0,0.0,0.0,0,0.0,20.6,0.0,12.0,3.473
2006/12/02,14:10:01,228,25,198,0.1,5.9,12.2,20.7,57.7,1011.4,0.00,0,0.0,0.0,0,0.0,20.1,0.0,12.0,3.472
2006/12/02,14:20:01,251,20,110,0.3,5.5,11.1,20.8,58.0,1011.4,0.00,0,0.0,0.0,0,0.0,20.1,0.0,12.1,3.472
2006/12/02,14:30:01,264,15,107,0.0,6.7,13.8,20.8,60.7,1011.5,0.00,0,0.0,0.0,0,0.0,20.1,0.0,12.0,3.472
2006/12/02,14:40:01,254,15,162,0.1,6.7,13.8,20.7,60.8,1011.4,0.00,0,0.0,0.0,0,0.0,20.1,0.0,12.0,3.472